Location: Mount Kobau Star Party
(49.1167°N, 119.7333°W)
Time: 11:16:15
(UTC-07:00)

ARIANE 6 FM1 Upper Stage - Pass Details

Date: 11 April 2026
Orbit: 526 x 601 km, 62.0° (Epoch: 18 May)

Event Time Altitude Azimuth Distance (km) Brightness Sun altitude
Rises 03:34:12 0° 316° (NW) 2,671 6.2 -23.3°
Reaches altitude 10° 03:36:26 10° 320° (NW) 1,774 5.3 -23.1°
Maximum altitude 03:40:22 60° 42° (NE) 604 3.0 -22.6°
Drops below altitude 10° 03:44:17 10° 123° (ESE) 1,767 5.3 -22.2°
Sets 03:46:30 0° 127° (SE) 2,658 6.2 -21.9°
